Aeroporto :
LOGIN :

Iscrizione | Disclaimer

   EN    FR    IT 

 










Sommario :    VFR   VFR Marginale   IFR   IFR Intensivo   IFR Molto Intensivo
Visibilità : 
Base nubi : 
>= 8 km
>= 3000ft
5 / 8 km
1000 / 3000 ft
1500m / 5 km
500 / 1000 ft
800 / 1500m
200 / 500 ft
< 800m
< 200 ft
Simboli :   Temporali  Nebbia  Neve Forte  Precipitazioni Forti  Vento > 20 kt
SIGMETs :   Varie  Temporali  Ghiacco  Turbolenza  Onda orograficha  Ceneri Vulcaniche






- Altitudine del aeroporto : 24 ft
- Codice IATA : SGD


EKSB - Sonderborg

ULTIMO METAR :
  • 200050Z AUTO 31023G39KT 9999 FEW041/// SCT067/// 03/M04 Q1010

METARs OBSOLETI :
  • 200020Z AUTO 30020G36KT 9999 BKN035/// 03/M04 Q1010
  • 192350Z AUTO 29016G26KT 9999 BKN035/// BKN061/// 03/M01 Q1010
  • 192320Z AUTO 29016KT 9999 BKN029/// OVC034/// 03/M00 Q1010
  • 192250Z AUTO 30018G30KT 9999 FEW029/// BKN032/// BKN063/// 04/M01 Q1010
  • 192220Z AUTO 29018KT 250V320 9999 FEW039/// BKN056/// 04/M01 Q1010

Previsioni scadute.



MetMap, La meteo Aeronautica in un colpo d'occhio ! - Copyright ORBIFLY Dicembre 2007 - Disclaimer

ORBIFLY MET'MAP TEAM :

Programmazione e sviluppo : Alexandra Zaïnal
Concezione : Baudouin d'Aumeries
Aiuto per la programmazione : Marc-Olivier Méhu
Supporto tecnico e logistico : Manuel Goepfert
Aiuto per la traduzione : Arnaldo La Scala

Contatto : metmap@orbifly.com




FONTI E CREDITI :

   NOAA